FW7777 Weather Reports


time (UTC)temp
C
wind
direction
speed
KPH
gust
KPH
rain 1hr
cm
rain 24hr
cm
rain mn
cm
humidity
%
barometer
mb
20260503225905 6 0.0 0.0 0.00 0.00 0.00 100 1016.8
20260503225404 6 0.0 0.0 0.00 0.00 0.00 100 1016.8
20260503224904 6 0.0 0.0 0.00 0.00 0.00 100 1016.7
20260503224405 6 0.0 0.0 0.00 0.00 0.00 100 1016.7
20260503223905 6 0.0 0.0 0.00 0.00 0.00 100 1016.7
20260503223405 6 0.0 0.0 0.00 0.00 0.00 100 1016.7
20260503222904 6 0.0 0.0 0.00 0.00 0.00 100 1016.8
20260503222405 6 0.0 0.0 0.00 0.00 0.00 100 1016.7
20260503221905 7 0.0 0.0 0.00 0.00 0.00 100 1016.8
20260503221405 7 0.0 0.0 0.00 0.00 0.00 100 1016.8
20260503220905 7 0.0 0.0 0.00 0.00 0.00 100 1016.8
20260503220410 7 0.0 0.0 0.00 0.00 0.00 100 1016.7
20260503215409 7 0.0 0.0 0.00 0.00 0.00 100 1016.8
20260503214409 7 0.0 0.0 0.00 0.00 0.00 100 1016.8
20260503213409 7 0.0 0.0 0.00 0.00 0.00 100 1016.9
20260503212405 7 0.0 0.0 0.00 0.00 0.00 100 1016.9
20260503211905 7 0.0 0.0 0.00 0.00 0.00 100 1016.8
20260503211406 7 0.0 0.0 0.00 0.00 0.00 100 1016.7
20260503210904 7 0.0 0.0 0.00 0.00 0.00 100 1016.8
20260503210404 7 0.0 0.0 0.00 0.00 0.00 100 1016.7
20260503205909 7 0.0 0.0 0.00 0.00 0.00 100 1016.7
20260503204909 7 0.0 0.0 0.00 0.00 0.00 100 1016.7
20260503203904 7 0.0 0.0 0.00 0.00 0.00 100 1016.7
20260503203405 7 0.0 0.0 0.00 0.00 0.00 100 1016.8
20260503202905 7 0.0 0.0 0.00 0.00 0.00 100 1016.9
20260503202404 7 0.0 0.0 0.00 0.00 0.00 100 1016.9
20260503201909 7 0.0 0.0 0.00 0.00 0.00 100 1016.9
20260503200904 7 0.0 0.0 0.00 0.00 0.00 100 1017.0
20260503200405 7 0.0 0.0 0.00 0.00 0.00 100 1017.1
20260503195904 8 0.0 0.0 0.00 0.00 0.00 100 1017.2
20260503195405 8 0.0 0.0 0.00 0.00 0.00 100 1017.1
20260503194905 8 0.0 0.0 0.00 0.00 0.00 100 1017.1
20260503194404 8 0.0 0.0 0.00 0.00 0.00 100 1017.3
20260503193905 8 0.0 0.0 0.00 0.00 0.00 100 1017.3
20260503193406 8 0.0 0.0 0.00 0.00 0.00 100 1017.2
20260503192906 8 0.0 0.0 0.00 0.00 0.00 100 1017.3
20260503192405 7 0.0 0.0 0.00 0.00 0.00 100 1017.2
20260503191905 8 0.0 0.0 0.00 0.00 0.00 100 1017.2
20260503191409 8 0.0 0.0 0.00 0.00 0.00 100 1017.2
20260503190405 8 0.0 0.0 0.00 0.00 0.00 100 1017.1
20260503185909 8 0.0 0.0 0.00 0.00 0.00 100 1017.1
20260503184905 8 0.0 0.0 0.00 0.00 0.00 100 1017.0
20260503184406 8 0.0 0.0 0.00 0.00 0.00 100 1016.9
20260503183905 8 0.0 0.0 0.00 0.00 0.00 100 1016.9
20260503183410 8 0.0 0.0 0.00 0.00 0.00 100 1017.0
20260503182405 8 0.0 0.0 0.00 0.00 0.00 100 1016.8
20260503181905 8 0.0 0.0 0.00 0.00 0.00 100 1016.9
20260503181405 9 0.0 0.0 0.00 0.00 0.00 100 1016.8
20260503180904 9 0.0 0.0 0.00 0.00 0.00 100 1016.7
20260503180403 9 0.0 0.0 0.00 0.00 0.00 100 1016.7
20260503175904 9 0.0 0.0 0.00 0.00 0.00 100 1016.7
20260503175408 10 0.0 0.0 0.00 0.00 0.00 100 1016.7
20260503174406 10 0.0 0.0 0.00 0.00 0.00 100 1016.8
20260503173907 10 0.0 0.0 0.00 0.00 0.00 100 1016.8
20260503173409 10 0.0 0.0 0.00 0.00 0.00 100 1016.7
20260503172404 11 0.0 0.0 0.00 0.00 0.00 100 1016.6
20260503171904 11 0.0 0.0 0.00 0.00 0.00 100 1016.6
20260503171405 11 0.0 0.0 0.00 0.00 0.00 100 1016.7
20260503170905 12 0.0 0.0 0.00 0.00 0.00 100 1016.6
20260503170404 12 0.0 0.0 0.00 0.00 0.00 100 1016.6
20260503150905 25 0.0 0.0 0.00 0.00 0.00 100 1015.9
20260503150404 21 0.0 0.0 0.00 0.00 0.00 100 1016.2
20260503130904 17 0.0 0.0 0.00 0.00 0.00 100 1017.6
20260503130404 16 0.0 0.0 0.00 0.00 0.00 100 1017.8
20260503110405 16 0.0 0.0 0.00 0.00 0.00 100 1018.3
20260503090404 15 0.0 0.0 0.00 0.00 0.00 100 1019.1
20260503081409 14 0.0 0.0 0.00 0.00 0.00 100 1019.2
20260503080405 12 0.0 0.0 0.00 0.00 0.00 100 1019.4
20260503072904 12 0.0 0.0 0.00 0.00 0.00 100 1019.4
20260503072405 11 0.0 0.0 0.00 0.00 0.00 100 1019.5
20260503071908 11 0.0 0.0 0.00 0.00 0.00 100 1019.6
20260503071412 10 0.0 0.0 0.00 0.00 0.00 100 1019.6
20260503054905 10 0.0 0.0 0.00 0.00 0.00 100 1019.3
20260503054405 10 0.0 0.0 0.00 0.00 0.00 100 1019.3
20260503053909 10 0.0 0.0 0.00 0.00 0.00 100 1019.2
20260503052904 9 0.0 0.0 0.00 0.00 0.00 100 1019.3
20260503052404 9 0.0 0.0 0.00 0.00 0.00 100 1019.3
20260503051904 9 0.0 0.0 0.00 0.00 0.00 100 1019.3
20260503051405 9 0.0 0.0 0.00 0.00 0.00 100 1019.3
20260503050909 8 0.0 0.0 0.00 0.00 0.00 100 1019.4
20260503045905 8 0.0 0.0 0.00 0.00 0.00 100 1019.3
20260503045404 8 0.0 0.0 0.00 0.00 0.00 100 1019.3
20260503044905 8 0.0 0.0 0.00 0.00 0.00 100 1019.2
20260503044405 8 0.0 0.0 0.00 0.00 0.00 100 1019.2
20260503043904 8 0.0 0.0 0.00 0.00 0.00 100 1019.2
20260503043405 8 0.0 0.0 0.00 0.00 0.00 100 1019.1
20260503042904 8 0.0 0.0 0.00 0.00 0.00 100 1019.2
20260503042404 7 0.0 0.0 0.00 0.00 0.00 100 1019.0
20260503041909 7 0.0 0.0 0.00 0.00 0.00 100 1019.0
20260503040905 7 0.0 0.0 0.00 0.00 0.00 100 1019.0
20260503040409 7 0.0 0.0 0.00 0.00 0.00 100 1018.9
20260503035404 6 0.0 0.0 0.00 0.00 0.00 100 1018.8
20260503034906 6 0.0 0.0 0.00 0.00 0.00 100 1018.8
20260503034405 6 0.0 0.0 0.00 0.00 0.00 100 1018.8
20260503033904 6 0.0 0.0 0.00 0.00 0.00 100 1018.7
20260503033408 6 0.0 0.0 0.00 0.00 0.00 100 1018.6
20260503032405 6 0.0 0.0 0.00 0.00 0.00 100 1018.6
20260503031905 6 0.0 0.0 0.00 0.00 0.00 100 1018.5
20260503031410 6 0.0 0.0 0.00 0.00 0.00 100 1018.5
20260503030405 6 0.0 0.0 0.00 0.00 0.00 100 1018.5
20260503025904 6 0.0 0.0 0.00 0.00 0.00 100 1018.5
20260503025404 6 0.0 0.0 0.00 0.00 0.00 100 1018.4
20260503024904 6 0.0 0.0 0.00 0.00 0.00 100 1018.5
20260503024405 6 0.0 0.0 0.00 0.00 0.00 100 1018.5
20260503023904 6 0.0 0.0 0.00 0.00 0.00 100 1018.4
20260503023404 6 0.0 0.0 0.00 0.00 0.00 100 1018.4
20260503022905 6 0.0 0.0 0.00 0.00 0.00 100 1018.4
20260503022404 6 0.0 0.0 0.00 0.00 0.00 100 1018.4
20260503021904 6 0.0 0.0 0.00 0.00 0.00 100 1018.4
20260503021409 6 0.0 0.0 0.00 0.00 0.00 100 1018.3
20260503020404 6 0.0 0.0 0.00 0.00 0.00 100 1018.3
20260503015905 6 0.0 0.0 0.00 0.00 0.00 100 1018.3
20260503015404 6 0.0 0.0 0.00 0.00 0.00 100 1018.3
20260503014906 6 0.0 0.0 0.00 0.00 0.00 100 1018.4
20260503014407 6 0.0 0.0 0.00 0.00 0.00 100 1018.3
20260503013906 6 0.0 0.0 0.00 0.00 0.00 100 1018.3
20260503013404 6 0.0 0.0 0.00 0.00 0.00 100 1018.3
20260503012905 6 0.0 0.0 0.00 0.00 0.00 100 1018.3
20260503012404 6 0.0 0.0 0.00 0.00 0.00 100 1018.4
20260503011905 6 0.0 0.0 0.00 0.00 0.00 100 1018.3
20260503011404 6 0.0 0.0 0.00 0.00 0.00 100 1018.3
20260503010904 6 0.0 0.0 0.00 0.00 0.00 100 1018.2
20260503010404 6 0.0 0.0 0.00 0.00 0.00 100 1018.1
20260503005904 6 0.0 0.0 0.00 0.00 0.00 100 1018.2
20260503005404 6 0.0 0.0 0.00 0.00 0.00 100 1018.3
20260503004906 6 0.0 0.0 0.00 0.00 0.00 100 1018.1
20260503004405 6 0.0 0.0 0.00 0.00 0.00 100 1018.2
20260503003905 6 0.0 0.0 0.00 0.00 0.00 100 1018.2
20260503003405 6 0.0 0.0 0.00 0.00 0.00 100 1018.3
20260503002904 6 0.0 0.0 0.00 0.00 0.00 100 1018.4
20260503002403 6 0.0 0.0 0.00 0.00 0.00 100 1018.3
20260503001909 6 0.0 0.0 0.00 0.00 0.00 100 1018.4
20260503000404 7 0.0 0.0 0.00 0.00 0.00 100 1018.3
20260502235909 7 0.0 0.0 0.00 0.00 0.00 100 1018.2
20260502234904 7 0.0 0.0 0.00 0.00 0.00 100 1018.2
20260502234404 7 0.0 0.0 0.00 0.00 0.00 100 1018.2
20260502233906 7 0.0 0.0 0.00 0.00 0.00 100 1018.3
20260502233405 7 0.0 0.0 0.00 0.00 0.00 100 1018.3
20260502232904 7 0.0 0.0 0.00 0.00 0.00 100 1018.3
20260502232409 7 0.0 0.0 0.00 0.00 0.00 100 1018.3
20260502231404 7 0.0 0.0 0.00 0.00 0.00 100 1018.4
20260502230909 7 0.0 0.0 0.00 0.00 0.00 100 1018.3